owner,sensor,date,latitude,longitude,vertical_datum,sea_water_practical_salinity,qcFlag 
COMPS,ioos:station:USF.COMPS:FHP:1,2015-09-06T08:36:00Z,28.1530,-82.8010,,12.936,1111122 
COMPS,ioos:station:USF.COMPS:FHP:1,2015-09-08T00:24:00Z,28.1530,-82.8010,,13.027,1111122 
COMPS,ioos:station:USF.COMPS:FHP:1,2015-09-08T00:30:00Z,28.1530,-82.8010,,13.371,1111122 
COMPS,ioos:station:USF.COMPS:FHP:1,2015-09-08T00:36:00Z,28.1530,-82.8010,,13.228,1111122 
COMPS,ioos:station:USF.COMPS:FHP:1,2015-09-09T01:30:00Z,28.1530,-82.8010,,12.582,1111122 
COMPS,ioos:station:USF.COMPS:FHP:1,2015-09-09T01:36:00Z,28.1530,-82.8010,,12.584,1111122 
COMPS,ioos:station:USF.COMPS:FHP:1,2015-09-09T01:42:00Z,28.1530,-82.8010,,13.202,1111122 
COMPS,ioos:station:USF.COMPS:FHP:1,2015-09-09T01:48:00Z,28.1530,-82.8010,,13.063,1111122 
COMPS,ioos:station:USF.COMPS:FHP:1,2015-09-09T01:54:00Z,28.1530,-82.8010,,13.255,1111122 
COMPS,ioos:station:USF.COMPS:FHP:1,2015-09-13T15:12:00Z,28.1530,-82.8010,,12.627,1111122 
COMPS,ioos:station:USF.COMPS:FHP:1,2015-09-13T15:18:00Z,28.1530,-82.8010,,12.853,1111122 
COMPS,ioos:station:USF.COMPS:FHP:1,2015-09-13T15:24:00Z,28.1530,-82.8010,,12.896,1111122 
COMPS,ioos:station:USF.COMPS:FHP:1,2015-09-13T15:30:00Z,28.1530,-82.8010,,12.779,1111122 
COMPS,ioos:station:USF.COMPS:FHP:1,2015-09-13T15:36:00Z,28.1530,-82.8010,,12.802,1111122 
COMPS,ioos:station:USF.COMPS:FHP:1,2015-09-13T15:42:00Z,28.1530,-82.8010,,12.764,1111122 
COMPS,ioos:station:USF.COMPS:FHP:1,2015-09-13T15:48:00Z,28.1530,-82.8010,,12.761,1111122 
COMPS,ioos:station:USF.COMPS:FHP:1,2015-09-13T15:54:00Z,28.1530,-82.8010,,12.523,1111122 
COMPS,ioos:station:USF.COMPS:FHP:1,2015-09-14T04:06:00Z,28.1530,-82.8010,,11.751,1111122 
COMPS,ioos:station:USF.COMPS:FHP:1,2015-09-14T04:30:00Z,28.1530,-82.8010,,12.215,1111122 
COMPS,ioos:station:USF.COMPS:FHP:1,2015-09-14T04:36:00Z,28.1530,-82.8010,,12.203,1111122 
COMPS,ioos:station:USF.COMPS:FHP:1,2015-09-14T04:42:00Z,28.1530,-82.8010,,12.204,1111122 
COMPS,ioos:station:USF.COMPS:FHP:1,2015-09-14T04:54:00Z,28.1530,-82.8010,,12.16,1111122 
COMPS,ioos:station:USF.COMPS:FHP:1,2015-09-14T05:00:00Z,28.1530,-82.8010,,12.143,1111122 
COMPS,ioos:station:USF.COMPS:FHP:1,2015-09-14T05:06:00Z,28.1530,-82.8010,,12.097,1111122 
COMPS,ioos:station:USF.COMPS:FHP:1,2015-09-14T05:12:00Z,28.1530,-82.8010,,12.065,1111122 
COMPS,ioos:station:USF.COMPS:FHP:1,2015-09-14T05:18:00Z,28.1530,-82.8010,,12.094,1111122 
COMPS,ioos:station:USF.COMPS:FHP:1,2015-09-14T05:24:00Z,28.1530,-82.8010,,12.089,1111122 
COMPS,ioos:station:USF.COMPS:FHP:1,2015-09-14T05:30:00Z,28.1530,-82.8010,,12.076,1111122 
COMPS,ioos:station:USF.COMPS:FHP:1,2015-09-14T05:36:00Z,28.1530,-82.8010,,12.108,1111122 
COMPS,ioos:station:USF.COMPS:FHP:1,2015-09-14T05:42:00Z,28.1530,-82.8010,,12.13,1111122 
COMPS,ioos:station:USF.COMPS:FHP:1,2015-09-14T05:48:00Z,28.1530,-82.8010,,12.134,1111122 
COMPS,ioos:station:USF.COMPS:FHP:1,2015-09-14T05:54:00Z,28.1530,-82.8010,,12.144,1111122 
COMPS,ioos:station:USF.COMPS:FHP:1,2015-09-14T06:00:00Z,28.1530,-82.8010,,12.149,1111122 
COMPS,ioos:station:USF.COMPS:FHP:1,2015-09-14T06:06:00Z,28.1530,-82.8010,,12.141,1111122 
COMPS,ioos:station:USF.COMPS:FHP:1,2015-09-14T06:12:00Z,28.1530,-82.8010,,12.129,1111122 
COMPS,ioos:station:USF.COMPS:FHP:1,2015-09-14T06:18:00Z,28.1530,-82.8010,,12.17,1111122 
COMPS,ioos:station:USF.COMPS:FHP:1,2015-09-14T06:24:00Z,28.1530,-82.8010,,12.136,1111122 
COMPS,ioos:station:USF.COMPS:FHP:1,2015-09-14T06:42:00Z,28.1530,-82.8010,,12.106,1111122 
COMPS,ioos:station:USF.COMPS:FHP:1,2015-09-14T06:48:00Z,28.1530,-82.8010,,12.125,1111122 
COMPS,ioos:station:USF.COMPS:FHP:1,2015-09-14T06:54:00Z,28.1530,-82.8010,,12.12,1111122 
COMPS,ioos:station:USF.COMPS:FHP:1,2015-09-15T16:06:00Z,28.1530,-82.8010,,13.473,1111122 
COMPS,ioos:station:USF.COMPS:FHP:1,2015-09-15T16:12:00Z,28.1530,-82.8010,,13.886,1111122 
COMPS,ioos:station:USF.COMPS:FHP:1,2015-09-15T16:18:00Z,28.1530,-82.8010,,14.059,1111122 
COMPS,ioos:station:USF.COMPS:FHP:1,2015-09-15T16:24:00Z,28.1530,-82.8010,,14.488,1111122 
COMPS,ioos:station:USF.COMPS:FHP:1,2015-09-15T16:30:00Z,28.1530,-82.8010,,14.159,1111122 
COMPS,ioos:station:USF.COMPS:FHP:1,2015-09-15T16:36:00Z,28.1530,-82.8010,,14.525,1111122 
COMPS,ioos:station:USF.COMPS:FHP:1,2015-09-15T16:42:00Z,28.1530,-82.8010,,14.527,1111122 
COMPS,ioos:station:USF.COMPS:FHP:1,2015-09-15T16:48:00Z,28.1530,-82.8010,,14.182,1111122 
COMPS,ioos:station:USF.COMPS:FHP:1,2015-09-15T16:54:00Z,28.1530,-82.8010,,14.339,1111122 
COMPS,ioos:station:USF.COMPS:FHP:1,2015-09-15T17:00:00Z,28.1530,-82.8010,,14.408,1111122 
COMPS,ioos:station:USF.COMPS:FHP:1,2015-09-15T17:06:00Z,28.1530,-82.8010,,14.007,1111122 
COMPS,ioos:station:USF.COMPS:FHP:1,2015-09-15T17:12:00Z,28.1530,-82.8010,,14.168,1111122 
COMPS,ioos:station:USF.COMPS:FHP:1,2015-09-15T17:18:00Z,28.1530,-82.8010,,14.447,1111122 
COMPS,ioos:station:USF.COMPS:FHP:1,2015-09-15T17:24:00Z,28.1530,-82.8010,,14.207,1111122 
COMPS,ioos:station:USF.COMPS:FHP:1,2015-09-15T17:30:00Z,28.1530,-82.8010,,14.281,1111122 
COMPS,ioos:station:USF.COMPS:FHP:1,2015-09-15T17:36:00Z,28.1530,-82.8010,,14.545,1111122 
COMPS,ioos:station:USF.COMPS:FHP:1,2015-09-15T17:42:00Z,28.1530,-82.8010,,14.774,1111122 
COMPS,ioos:station:USF.COMPS:FHP:1,2015-09-15T17:48:00Z,28.1530,-82.8010,,18.266,1111122 
COMPS,ioos:station:USF.COMPS:FHP:1,2015-09-15T17:54:00Z,28.1530,-82.8010,,14.205,1111122 
COMPS,ioos:station:USF.COMPS:FHP:1,2015-09-15T18:00:00Z,28.1530,-82.8010,,18.223,1111122 
COMPS,ioos:station:USF.COMPS:FHP:1,2015-09-15T18:06:00Z,28.1530,-82.8010,,20.831,1111122 
COMPS,ioos:station:USF.COMPS:FHP:1,2015-09-15T18:12:00Z,28.1530,-82.8010,,19.693,1111122 
COMPS,ioos:station:USF.COMPS:FHP:1,2015-09-15T18:18:00Z,28.1530,-82.8010,,20.691,1111122 
COMPS,ioos:station:USF.COMPS:FHP:1,2015-09-15T18:24:00Z,28.1530,-82.8010,,20.969,1111122 
COMPS,ioos:station:USF.COMPS:FHP:1,2015-09-15T18:30:00Z,28.1530,-82.8010,,18.318,1111122 
COMPS,ioos:station:USF.COMPS:FHP:1,2015-09-15T18:36:00Z,28.1530,-82.8010,,18.033,1111122 
COMPS,ioos:station:USF.COMPS:FHP:1,2015-09-15T18:42:00Z,28.1530,-82.8010,,14.184,1111122 
COMPS,ioos:station:USF.COMPS:FHP:1,2015-09-15T18:48:00Z,28.1530,-82.8010,,13.605,1111122 
COMPS,ioos:station:USF.COMPS:FHP:1,2015-09-15T18:54:00Z,28.1530,-82.8010,,13.771,1111122 
COMPS,ioos:station:USF.COMPS:FHP:1,2015-09-15T19:00:00Z,28.1530,-82.8010,,14.038,1111122 
COMPS,ioos:station:USF.COMPS:FHP:1,2015-09-15T19:06:00Z,28.1530,-82.8010,,14.103,1111122 
COMPS,ioos:station:USF.COMPS:FHP:1,2015-09-15T19:12:00Z,28.1530,-82.8010,,14.099,1111122 
COMPS,ioos:station:USF.COMPS:FHP:1,2015-09-15T19:18:00Z,28.1530,-82.8010,,13.843,1111122 
COMPS,ioos:station:USF.COMPS:FHP:1,2015-09-15T19:24:00Z,28.1530,-82.8010,,13.7,1111122 
COMPS,ioos:station:USF.COMPS:FHP:1,2015-09-16T03:48:00Z,28.1530,-82.8010,,12.564,1111122 
COMPS,ioos:station:USF.COMPS:FHP:1,2015-09-16T03:54:00Z,28.1530,-82.8010,,13.399,1111122 
COMPS,ioos:station:USF.COMPS:FHP:1,2015-09-16T04:00:00Z,28.1530,-82.8010,,13.761,1111122 
COMPS,ioos:station:USF.COMPS:FHP:1,2015-09-16T04:06:00Z,28.1530,-82.8010,,13.935,1111122 
COMPS,ioos:station:USF.COMPS:FHP:1,2015-09-16T04:12:00Z,28.1530,-82.8010,,14.051,1111122 
COMPS,ioos:station:USF.COMPS:FHP:1,2015-09-16T04:18:00Z,28.1530,-82.8010,,14.318,1111122 
COMPS,ioos:station:USF.COMPS:FHP:1,2015-09-16T04:24:00Z,28.1530,-82.8010,,14.053,1111122 
COMPS,ioos:station:USF.COMPS:FHP:1,2015-09-16T04:30:00Z,28.1530,-82.8010,,14.071,1111122 
COMPS,ioos:station:USF.COMPS:FHP:1,2015-09-16T04:36:00Z,28.1530,-82.8010,,14.057,1111122 
COMPS,ioos:station:USF.COMPS:FHP:1,2015-09-16T04:42:00Z,28.1530,-82.8010,,13.881,1111122 
COMPS,ioos:station:USF.COMPS:FHP:1,2015-09-16T04:48:00Z,28.1530,-82.8010,,13.863,1111122 
COMPS,ioos:station:USF.COMPS:FHP:1,2015-09-16T04:54:00Z,28.1530,-82.8010,,13.974,1111122 
COMPS,ioos:station:USF.COMPS:FHP:1,2015-09-16T05:00:00Z,28.1530,-82.8010,,13.926,1111122 
COMPS,ioos:station:USF.COMPS:FHP:1,2015-09-16T05:06:00Z,28.1530,-82.8010,,14.056,1111122 
COMPS,ioos:station:USF.COMPS:FHP:1,2015-09-16T05:12:00Z,28.1530,-82.8010,,13.95,1111122 
COMPS,ioos:station:USF.COMPS:FHP:1,2015-09-16T05:18:00Z,28.1530,-82.8010,,13.857,1111122 
COMPS,ioos:station:USF.COMPS:FHP:1,2015-09-16T05:24:00Z,28.1530,-82.8010,,13.673,1111122 
COMPS,ioos:station:USF.COMPS:FHP:1,2015-09-16T05:30:00Z,28.1530,-82.8010,,13.735,1111122 
COMPS,ioos:station:USF.COMPS:FHP:1,2015-09-16T05:36:00Z,28.1530,-82.8010,,13.82,1111122 
COMPS,ioos:station:USF.COMPS:FHP:1,2015-09-16T05:42:00Z,28.1530,-82.8010,,13.747,1111122 
COMPS,ioos:station:USF.COMPS:FHP:1,2015-09-16T05:48:00Z,28.1530,-82.8010,,13.769,1111122 
COMPS,ioos:station:USF.COMPS:FHP:1,2015-09-16T05:54:00Z,28.1530,-82.8010,,13.746,1111122 
COMPS,ioos:station:USF.COMPS:FHP:1,2015-09-16T06:00:00Z,28.1530,-82.8010,,13.755,1111122 
COMPS,ioos:station:USF.COMPS:FHP:1,2015-09-16T06:06:00Z,28.1530,-82.8010,,13.791,1111122 
COMPS,ioos:station:USF.COMPS:FHP:1,2015-09-16T06:12:00Z,28.1530,-82.8010,,13.964,1111122 
COMPS,ioos:station:USF.COMPS:FHP:1,2015-09-16T06:18:00Z,28.1530,-82.8010,,14.276,1111122 
COMPS,ioos:station:USF.COMPS:FHP:1,2015-09-16T06:24:00Z,28.1530,-82.8010,,14.359,1111122 
COMPS,ioos:station:USF.COMPS:FHP:1,2015-09-16T06:30:00Z,28.1530,-82.8010,,14.224,1111122 
COMPS,ioos:station:USF.COMPS:FHP:1,2015-09-16T06:36:00Z,28.1530,-82.8010,,14.062,1111122 
COMPS,ioos:station:USF.COMPS:FHP:1,2015-09-16T06:42:00Z,28.1530,-82.8010,,14.07,1111122 
COMPS,ioos:station:USF.COMPS:FHP:1,2015-09-16T06:48:00Z,28.1530,-82.8010,,14.138,1111122 
COMPS,ioos:station:USF.COMPS:FHP:1,2015-09-16T06:54:00Z,28.1530,-82.8010,,14.119,1111122 
COMPS,ioos:station:USF.COMPS:FHP:1,2015-09-16T07:00:00Z,28.1530,-82.8010,,14.138,1111122 
COMPS,ioos:station:USF.COMPS:FHP:1,2015-09-16T07:06:00Z,28.1530,-82.8010,,14.449,1111122 
COMPS,ioos:station:USF.COMPS:FHP:1,2015-09-16T07:12:00Z,28.1530,-82.8010,,14.381,1111122 
COMPS,ioos:station:USF.COMPS:FHP:1,2015-09-16T07:18:00Z,28.1530,-82.8010,,14.253,1111122 
COMPS,ioos:station:USF.COMPS:FHP:1,2015-09-16T07:24:00Z,28.1530,-82.8010,,14.498,1111122 
COMPS,ioos:station:USF.COMPS:FHP:1,2015-09-16T07:30:00Z,28.1530,-82.8010,,14.291,1111122 
COMPS,ioos:station:USF.COMPS:FHP:1,2015-09-16T07:36:00Z,28.1530,-82.8010,,14.12,1111122 
COMPS,ioos:station:USF.COMPS:FHP:1,2015-09-16T07:42:00Z,28.1530,-82.8010,,13.872,1111122 
COMPS,ioos:station:USF.COMPS:FHP:1,2015-09-16T07:48:00Z,28.1530,-82.8010,,13.921,1111122 
COMPS,ioos:station:USF.COMPS:FHP:1,2015-09-16T07:54:00Z,28.1530,-82.8010,,13.866,1111122 
COMPS,ioos:station:USF.COMPS:FHP:1,2015-09-16T08:00:00Z,28.1530,-82.8010,,13.463,1111122 
COMPS,ioos:station:USF.COMPS:FHP:1,2015-09-16T08:06:00Z,28.1530,-82.8010,,12.805,1111122 
COMPS,ioos:station:USF.COMPS:FHP:1,2015-09-16T15:00:00Z,28.1530,-82.8010,,12.607,1111122 
COMPS,ioos:station:USF.COMPS:FHP:1,2015-09-16T15:06:00Z,28.1530,-82.8010,,12.571,1111122 
COMPS,ioos:station:USF.COMPS:FHP:1,2015-09-16T15:24:00Z,28.1530,-82.8010,,12.593,1111122 
COMPS,ioos:station:USF.COMPS:FHP:1,2015-09-16T15:30:00Z,28.1530,-82.8010,,12.693,1111122 
COMPS,ioos:station:USF.COMPS:FHP:1,2015-09-16T15:36:00Z,28.1530,-82.8010,,12.695,1111122 
COMPS,ioos:station:USF.COMPS:FHP:1,2015-09-16T16:06:00Z,28.1530,-82.8010,,13.034,1111122 
COMPS,ioos:station:USF.COMPS:FHP:1,2015-09-16T16:12:00Z,28.1530,-82.8010,,13.046,1111122 
COMPS,ioos:station:USF.COMPS:FHP:1,2015-09-16T16:18:00Z,28.1530,-82.8010,,13.04,1111122 
COMPS,ioos:station:USF.COMPS:FHP:1,2015-09-16T16:24:00Z,28.1530,-82.8010,,13.602,1111122 
COMPS,ioos:station:USF.COMPS:FHP:1,2015-09-16T16:30:00Z,28.1530,-82.8010,,14.073,1111122 
COMPS,ioos:station:USF.COMPS:FHP:1,2015-09-16T16:36:00Z,28.1530,-82.8010,,14.167,1111122 
COMPS,ioos:station:USF.COMPS:FHP:1,2015-09-16T16:42:00Z,28.1530,-82.8010,,14.233,1111122 
COMPS,ioos:station:USF.COMPS:FHP:1,2015-09-16T16:48:00Z,28.1530,-82.8010,,14.504,1111122 
COMPS,ioos:station:USF.COMPS:FHP:1,2015-09-16T16:54:00Z,28.1530,-82.8010,,14.908,1111122 
COMPS,ioos:station:USF.COMPS:FHP:1,2015-09-16T17:00:00Z,28.1530,-82.8010,,15.062,1111122 
COMPS,ioos:station:USF.COMPS:FHP:1,2015-09-16T17:06:00Z,28.1530,-82.8010,,15.112,1111122 
COMPS,ioos:station:USF.COMPS:FHP:1,2015-09-16T17:12:00Z,28.1530,-82.8010,,14.88,1111122 
COMPS,ioos:station:USF.COMPS:FHP:1,2015-09-16T17:18:00Z,28.1530,-82.8010,,14.755,1111122 
COMPS,ioos:station:USF.COMPS:FHP:1,2015-09-16T17:24:00Z,28.1530,-82.8010,,14.685,1111122 
COMPS,ioos:station:USF.COMPS:FHP:1,2015-09-16T17:30:00Z,28.1530,-82.8010,,14.263,1111122 
COMPS,ioos:station:USF.COMPS:FHP:1,2015-09-16T17:36:00Z,28.1530,-82.8010,,14.232,1111122 
COMPS,ioos:station:USF.COMPS:FHP:1,2015-09-16T17:42:00Z,28.1530,-82.8010,,14.65,1111122 
COMPS,ioos:station:USF.COMPS:FHP:1,2015-09-16T17:48:00Z,28.1530,-82.8010,,14.456,1111122 
COMPS,ioos:station:USF.COMPS:FHP:1,2015-09-16T17:54:00Z,28.1530,-82.8010,,14.229,1111122 
COMPS,ioos:station:USF.COMPS:FHP:1,2015-09-16T18:00:00Z,28.1530,-82.8010,,14.366,1111122 
COMPS,ioos:station:USF.COMPS:FHP:1,2015-09-16T18:06:00Z,28.1530,-82.8010,,14.447,1111122 
COMPS,ioos:station:USF.COMPS:FHP:1,2015-09-16T18:12:00Z,28.1530,-82.8010,,14.045,1111122 
COMPS,ioos:station:USF.COMPS:FHP:1,2015-09-16T18:18:00Z,28.1530,-82.8010,,13.965,1111122 
COMPS,ioos:station:USF.COMPS:FHP:1,2015-09-16T18:24:00Z,28.1530,-82.8010,,13.931,1111122 
COMPS,ioos:station:USF.COMPS:FHP:1,2015-09-16T18:30:00Z,28.1530,-82.8010,,13.711,1111122 
COMPS,ioos:station:USF.COMPS:FHP:1,2015-09-16T18:36:00Z,28.1530,-82.8010,,13.777,1111122 
COMPS,ioos:station:USF.COMPS:FHP:1,2015-09-16T18:42:00Z,28.1530,-82.8010,,13.933,1111122 
COMPS,ioos:station:USF.COMPS:FHP:1,2015-09-16T18:48:00Z,28.1530,-82.8010,,13.867,1111122 
COMPS,ioos:station:USF.COMPS:FHP:1,2015-09-16T18:54:00Z,28.1530,-82.8010,,13.751,1111122 
COMPS,ioos:station:USF.COMPS:FHP:1,2015-09-16T19:00:00Z,28.1530,-82.8010,,13.702,1111122 
COMPS,ioos:station:USF.COMPS:FHP:1,2015-09-16T19:06:00Z,28.1530,-82.8010,,13.872,1111122 
COMPS,ioos:station:USF.COMPS:FHP:1,2015-09-16T19:12:00Z,28.1530,-82.8010,,13.941,1111122 
COMPS,ioos:station:USF.COMPS:FHP:1,2015-09-16T19:18:00Z,28.1530,-82.8010,,14.254,1111122 
COMPS,ioos:station:USF.COMPS:FHP:1,2015-09-16T19:24:00Z,28.1530,-82.8010,,14.262,1111122 
COMPS,ioos:station:USF.COMPS:FHP:1,2015-09-16T19:30:00Z,28.1530,-82.8010,,13.474,1111122 
COMPS,ioos:station:USF.COMPS:FHP:1,2015-09-16T19:36:00Z,28.1530,-82.8010,,13.523,1111122 
COMPS,ioos:station:USF.COMPS:FHP:1,2015-09-16T19:42:00Z,28.1530,-82.8010,,13.765,1111122 
COMPS,ioos:station:USF.COMPS:FHP:1,2015-09-16T19:48:00Z,28.1530,-82.8010,,13.813,1111122 
COMPS,ioos:station:USF.COMPS:FHP:1,2015-09-16T19:54:00Z,28.1530,-82.8010,,13.815,1111122 
COMPS,ioos:station:USF.COMPS:FHP:1,2015-09-16T20:00:00Z,28.1530,-82.8010,,13.584,1111122 
COMPS,ioos:station:USF.COMPS:FHP:1,2015-09-16T20:06:00Z,28.1530,-82.8010,,13.725,1111122 
COMPS,ioos:station:USF.COMPS:FHP:1,2015-09-16T20:12:00Z,28.1530,-82.8010,,13.494,1111122 
COMPS,ioos:station:USF.COMPS:FHP:1,2015-09-16T20:18:00Z,28.1530,-82.8010,,13.463,1111122 
COMPS,ioos:station:USF.COMPS:FHP:1,2015-09-16T20:24:00Z,28.1530,-82.8010,,13.405,1111122 
COMPS,ioos:station:USF.COMPS:FHP:1,2015-09-16T20:30:00Z,28.1530,-82.8010,,13.271,1111122 
COMPS,ioos:station:USF.COMPS:FHP:1,2015-09-16T20:36:00Z,28.1530,-82.8010,,13.136,1111122 
COMPS,ioos:station:USF.COMPS:FHP:1,2015-09-16T20:42:00Z,28.1530,-82.8010,,13.268,1111122 
COMPS,ioos:station:USF.COMPS:FHP:1,2015-09-16T20:48:00Z,28.1530,-82.8010,,13.068,1111122 
COMPS,ioos:station:USF.COMPS:FHP:1,2015-09-16T20:54:00Z,28.1530,-82.8010,,12.433,1111122 
COMPS,ioos:station:USF.COMPS:FHP:1,2015-09-17T04:12:00Z,28.1530,-82.8010,,12.525,1111122 
COMPS,ioos:station:USF.COMPS:FHP:1,2015-09-17T04:18:00Z,28.1530,-82.8010,,13.124,1111122 
COMPS,ioos:station:USF.COMPS:FHP:1,2015-09-17T04:24:00Z,28.1530,-82.8010,,13.887,1111122 
COMPS,ioos:station:USF.COMPS:FHP:1,2015-09-17T04:30:00Z,28.1530,-82.8010,,14.035,1111122 
COMPS,ioos:station:USF.COMPS:FHP:1,2015-09-17T04:36:00Z,28.1530,-82.8010,,14.13,1111122 
COMPS,ioos:station:USF.COMPS:FHP:1,2015-09-17T04:42:00Z,28.1530,-82.8010,,14.241,1111122 
COMPS,ioos:station:USF.COMPS:FHP:1,2015-09-17T04:48:00Z,28.1530,-82.8010,,14.246,1111122 
COMPS,ioos:station:USF.COMPS:FHP:1,2015-09-17T04:54:00Z,28.1530,-82.8010,,14.341,1111122 
COMPS,ioos:station:USF.COMPS:FHP:1,2015-09-17T05:00:00Z,28.1530,-82.8010,,14.592,1111122 
COMPS,ioos:station:USF.COMPS:FHP:1,2015-09-17T05:06:00Z,28.1530,-82.8010,,14.917,1111122 
COMPS,ioos:station:USF.COMPS:FHP:1,2015-09-17T05:12:00Z,28.1530,-82.8010,,14.856,1111122 
COMPS,ioos:station:USF.COMPS:FHP:1,2015-09-17T05:18:00Z,28.1530,-82.8010,,14.552,1111122 
COMPS,ioos:station:USF.COMPS:FHP:1,2015-09-17T05:24:00Z,28.1530,-82.8010,,14.606,1111122 
COMPS,ioos:station:USF.COMPS:FHP:1,2015-09-17T05:30:00Z,28.1530,-82.8010,,14.726,1111122 
COMPS,ioos:station:USF.COMPS:FHP:1,2015-09-17T05:36:00Z,28.1530,-82.8010,,14.78,1111122 
COMPS,ioos:station:USF.COMPS:FHP:1,2015-09-17T05:42:00Z,28.1530,-82.8010,,14.71,1111122 
COMPS,ioos:station:USF.COMPS:FHP:1,2015-09-17T05:48:00Z,28.1530,-82.8010,,14.374,1111122 
COMPS,ioos:station:USF.COMPS:FHP:1,2015-09-17T05:54:00Z,28.1530,-82.8010,,13.778,1111122 
COMPS,ioos:station:USF.COMPS:FHP:1,2015-09-17T06:00:00Z,28.1530,-82.8010,,14.103,1111122 
COMPS,ioos:station:USF.COMPS:FHP:1,2015-09-17T06:06:00Z,28.1530,-82.8010,,14.206,1111122 
COMPS,ioos:station:USF.COMPS:FHP:1,2015-09-17T06:12:00Z,28.1530,-82.8010,,14.245,1111122 
COMPS,ioos:station:USF.COMPS:FHP:1,2015-09-17T06:18:00Z,28.1530,-82.8010,,14.298,1111122 
COMPS,ioos:station:USF.COMPS:FHP:1,2015-09-17T06:24:00Z,28.1530,-82.8010,,14.264,1111122 
COMPS,ioos:station:USF.COMPS:FHP:1,2015-09-17T06:30:00Z,28.1530,-82.8010,,14.502,1111122 
COMPS,ioos:station:USF.COMPS:FHP:1,2015-09-17T06:36:00Z,28.1530,-82.8010,,14.528,1111122 
COMPS,ioos:station:USF.COMPS:FHP:1,2015-09-17T06:42:00Z,28.1530,-82.8010,,14.527,1111122 
COMPS,ioos:station:USF.COMPS:FHP:1,2015-09-17T06:48:00Z,28.1530,-82.8010,,14.303,1111122 
COMPS,ioos:station:USF.COMPS:FHP:1,2015-09-17T06:54:00Z,28.1530,-82.8010,,14.135,1111122 
COMPS,ioos:station:USF.COMPS:FHP:1,2015-09-17T07:00:00Z,28.1530,-82.8010,,14.188,1111122 
COMPS,ioos:station:USF.COMPS:FHP:1,2015-09-17T07:06:00Z,28.1530,-82.8010,,14.368,1111122 
COMPS,ioos:station:USF.COMPS:FHP:1,2015-09-17T07:12:00Z,28.1530,-82.8010,,14.511,1111122 
COMPS,ioos:station:USF.COMPS:FHP:1,2015-09-17T07:18:00Z,28.1530,-82.8010,,14.698,1111122 
COMPS,ioos:station:USF.COMPS:FHP:1,2015-09-17T07:24:00Z,28.1530,-82.8010,,14.546,1111122 
COMPS,ioos:station:USF.COMPS:FHP:1,2015-09-17T07:30:00Z,28.1530,-82.8010,,14.515,1111122 
COMPS,ioos:station:USF.COMPS:FHP:1,2015-09-17T07:36:00Z,28.1530,-82.8010,,14.465,1111122 
COMPS,ioos:station:USF.COMPS:FHP:1,2015-09-17T07:42:00Z,28.1530,-82.8010,,14.26,1111122 
COMPS,ioos:station:USF.COMPS:FHP:1,2015-09-17T07:48:00Z,28.1530,-82.8010,,14.465,1111122 
COMPS,ioos:station:USF.COMPS:FHP:1,2015-09-17T07:54:00Z,28.1530,-82.8010,,14.496,1111122 
COMPS,ioos:station:USF.COMPS:FHP:1,2015-09-17T08:00:00Z,28.1530,-82.8010,,14.46,1111122 
COMPS,ioos:station:USF.COMPS:FHP:1,2015-09-17T08:06:00Z,28.1530,-82.8010,,14.393,1111122 
COMPS,ioos:station:USF.COMPS:FHP:1,2015-09-17T08:12:00Z,28.1530,-82.8010,,14.283,1111122 
COMPS,ioos:station:USF.COMPS:FHP:1,2015-09-17T08:18:00Z,28.1530,-82.8010,,14.176,1111122 
COMPS,ioos:station:USF.COMPS:FHP:1,2015-09-17T08:24:00Z,28.1530,-82.8010,,13.905,1111122 
COMPS,ioos:station:USF.COMPS:FHP:1,2015-09-17T08:30:00Z,28.1530,-82.8010,,14.017,1111122 
COMPS,ioos:station:USF.COMPS:FHP:1,2015-09-17T08:36:00Z,28.1530,-82.8010,,14.18,1111122 
COMPS,ioos:station:USF.COMPS:FHP:1,2015-09-17T08:42:00Z,28.1530,-82.8010,,13.887,1111122 
COMPS,ioos:station:USF.COMPS:FHP:1,2015-09-17T08:48:00Z,28.1530,-82.8010,,13.899,1111122 
COMPS,ioos:station:USF.COMPS:FHP:1,2015-09-17T08:54:00Z,28.1530,-82.8010,,13.805,1111122 
COMPS,ioos:station:USF.COMPS:FHP:1,2015-09-17T09:00:00Z,28.1530,-82.8010,,13.057,1111122 
COMPS,ioos:station:USF.COMPS:FHP:1,2015-09-17T09:06:00Z,28.1530,-82.8010,,12.392,1111122 
COMPS,ioos:station:USF.COMPS:FHP:1,2015-09-17T09:12:00Z,28.1530,-82.8010,,12.058,1111122 
COMPS,ioos:station:USF.COMPS:FHP:1,2015-09-17T16:00:00Z,28.1530,-82.8010,,12.108,1111122 
COMPS,ioos:station:USF.COMPS:FHP:1,2015-09-17T17:30:00Z,28.1530,-82.8010,,12.636,1111122 
COMPS,ioos:station:USF.COMPS:FHP:1,2015-09-17T17:36:00Z,28.1530,-82.8010,,12.101,1111122 
COMPS,ioos:station:USF.COMPS:FHP:1,2015-09-17T17:42:00Z,28.1530,-82.8010,,12.305,1111122 
COMPS,ioos:station:USF.COMPS:FHP:1,2015-09-17T17:48:00Z,28.1530,-82.8010,,12.52,1111122 
COMPS,ioos:station:USF.COMPS:FHP:1,2015-09-17T17:54:00Z,28.1530,-82.8010,,12.753,1111122 
COMPS,ioos:station:USF.COMPS:FHP:1,2015-09-17T18:00:00Z,28.1530,-82.8010,,13.206,1111122 
COMPS,ioos:station:USF.COMPS:FHP:1,2015-09-17T18:06:00Z,28.1530,-82.8010,,13.429,1111122 
COMPS,ioos:station:USF.COMPS:FHP:1,2015-09-17T18:12:00Z,28.1530,-82.8010,,13.812,1111122 
COMPS,ioos:station:USF.COMPS:FHP:1,2015-09-17T18:18:00Z,28.1530,-82.8010,,13.823,1111122 
COMPS,ioos:station:USF.COMPS:FHP:1,2015-09-17T18:24:00Z,28.1530,-82.8010,,14.159,1111122 
COMPS,ioos:station:USF.COMPS:FHP:1,2015-09-17T18:30:00Z,28.1530,-82.8010,,14.186,1111122 
COMPS,ioos:station:USF.COMPS:FHP:1,2015-09-17T18:36:00Z,28.1530,-82.8010,,13.887,1111122 
COMPS,ioos:station:USF.COMPS:FHP:1,2015-09-17T18:42:00Z,28.1530,-82.8010,,14.74,1111122 
COMPS,ioos:station:USF.COMPS:FHP:1,2015-09-17T18:48:00Z,28.1530,-82.8010,,14.758,1111122 
COMPS,ioos:station:USF.COMPS:FHP:1,2015-09-17T18:54:00Z,28.1530,-82.8010,,14.922,1111122 
COMPS,ioos:station:USF.COMPS:FHP:1,2015-09-17T19:00:00Z,28.1530,-82.8010,,15.096,1111122 
COMPS,ioos:station:USF.COMPS:FHP:1,2015-09-17T19:06:00Z,28.1530,-82.8010,,14.912,1111122 
COMPS,ioos:station:USF.COMPS:FHP:1,2015-09-17T19:12:00Z,28.1530,-82.8010,,15.212,1111122 
COMPS,ioos:station:USF.COMPS:FHP:1,2015-09-17T19:18:00Z,28.1530,-82.8010,,14.656,1111122 
COMPS,ioos:station:USF.COMPS:FHP:1,2015-09-17T19:24:00Z,28.1530,-82.8010,,14.876,1111122 
COMPS,ioos:station:USF.COMPS:FHP:1,2015-09-17T19:30:00Z,28.1530,-82.8010,,14.801,1111122 
COMPS,ioos:station:USF.COMPS:FHP:1,2015-09-17T19:36:00Z,28.1530,-82.8010,,14.654,1111122 
COMPS,ioos:station:USF.COMPS:FHP:1,2015-09-17T19:42:00Z,28.1530,-82.8010,,14.078,1111122 
COMPS,ioos:station:USF.COMPS:FHP:1,2015-09-17T19:48:00Z,28.1530,-82.8010,,14.76,1111122 
COMPS,ioos:station:USF.COMPS:FHP:1,2015-09-17T19:54:00Z,28.1530,-82.8010,,15.139,1111122 
COMPS,ioos:station:USF.COMPS:FHP:1,2015-09-17T20:00:00Z,28.1530,-82.8010,,14.732,1111122 
COMPS,ioos:station:USF.COMPS:FHP:1,2015-09-17T20:06:00Z,28.1530,-82.8010,,15.081,1111122 
COMPS,ioos:station:USF.COMPS:FHP:1,2015-09-17T20:12:00Z,28.1530,-82.8010,,14.957,1111122 
COMPS,ioos:station:USF.COMPS:FHP:1,2015-09-17T20:18:00Z,28.1530,-82.8010,,15.022,1111122 
COMPS,ioos:station:USF.COMPS:FHP:1,2015-09-17T20:24:00Z,28.1530,-82.8010,,14.88,1111122 
COMPS,ioos:station:USF.COMPS:FHP:1,2015-09-17T20:30:00Z,28.1530,-82.8010,,14.864,1111122 
COMPS,ioos:station:USF.COMPS:FHP:1,2015-09-17T20:36:00Z,28.1530,-82.8010,,14.829,1111122 
COMPS,ioos:station:USF.COMPS:FHP:1,2015-09-17T20:42:00Z,28.1530,-82.8010,,15.309,1111122 
COMPS,ioos:station:USF.COMPS:FHP:1,2015-09-17T20:48:00Z,28.1530,-82.8010,,15.002,1111122 
COMPS,ioos:station:USF.COMPS:FHP:1,2015-09-17T20:54:00Z,28.1530,-82.8010,,15.288,1111122 
COMPS,ioos:station:USF.COMPS:FHP:1,2015-09-17T21:00:00Z,28.1530,-82.8010,,15.265,1111122 
COMPS,ioos:station:USF.COMPS:FHP:1,2015-09-17T21:06:00Z,28.1530,-82.8010,,14.545,1111122 
COMPS,ioos:station:USF.COMPS:FHP:1,2015-09-17T21:12:00Z,28.1530,-82.8010,,14.523,1111122 
COMPS,ioos:station:USF.COMPS:FHP:1,2015-09-17T21:18:00Z,28.1530,-82.8010,,14.591,1111122 
COMPS,ioos:station:USF.COMPS:FHP:1,2015-09-17T21:24:00Z,28.1530,-82.8010,,14.215,1111122 
COMPS,ioos:station:USF.COMPS:FHP:1,2015-09-17T21:30:00Z,28.1530,-82.8010,,14.082,1111122 